Вернуться в каталог

PEGASUS DEB

АктивенPO
NORAD 24082·DEBRIS·🇺🇸 United States

Запущен May 19, 1994 с Vandenberg Space Force Base

Loading…

Ближайшие Пролёты (ближайшие 24 часа)

TLE

СвежийSource: Space-Track

Эпоха: Sep 14, 2026, 06:10 UTC

1 24082U 94029ED  26257.25727794  .00007130  00000-0  33148-3 0  9998
2 24082  81.9072 241.8877 0038051 258.1671 101.5294 15.19155814633867

Отслеживайте PEGASUS DEB в реальном времени с AllMySat

Download on the App Store